GFSNIL_sfc_temp_072.txt.gz
Temp
52 52 52 51 51 50 50 51 51 51 54 58 58 57 56 54 53 53 51 51 51 51
48 48 49 49 48 48 48 48 49 49 49 51 54 57 56 54 52 51 50 50 50 50
46 46 46 46 47 47 47 47 46 46 47 47 48 50 54 54 54 52 51 50 49 49
45 45 45 44 45 45 45 45 45 45 45 46 46 45 47 50 52 51 51 50 48 48
44 44 44 44 45 45 45 44 45 44 44 45 45 45 45 47 49 49 48 48 49 47
44 43 43 43 43 43 43 42 42 41 41 42 43 44 46 48 48 48 48 48 46 46
42 41 42 42 41 41 40 39 40 40 40 40 41 42 45 46 46 46 46 46 46 44
39 38 38 37 37 37 36 38 37 37 37 36 37 40 42 42 43 42 42 40 40 40
35 34 34 34 34 34 35 35 35 35 35 35 37 40 41 41 38 37 38 38 37 37
32 32 33 33 32 33 33 33 33 33 33 32 33 39 40 40 37 36 36 36 35 34
31 30 29 29 29 31 31 31 31 30 30 29 31 38 39 39 35 35 34 34 34 34
31 30 29 29 29 27 27 26 27 27 26 24 28 37 39 38 34 33 33 32 32 32
29 27 27 28 28 25 23 27 27 27 23 24 30 36 37 37 32 31 30 30 30 31
26 25 25 25 23 23 23 24 22 23 22 23 28 31 37 38 31 30 29 29 29 30

GFSNIL_sfc_temp_075.txt.gz
Temp
55 56 56 55 55 55 55 55 56 55 56 58 59 59 58 57 55 54 53 53 53 53
51 51 52 52 52 52 52 51 52 52 52 53 55 57 58 57 55 53 52 52 52 52
48 49 49 49 49 49 50 50 50 50 50 51 51 52 53 55 57 54 53 52 51 51
47 47 48 48 48 48 48 48 48 48 48 49 49 49 49 51 52 53 53 52 50 50
45 45 45 45 46 45 46 46 46 45 45 46 46 47 47 48 49 49 48 50 50 49
43 44 43 43 43 43 43 43 43 43 43 44 44 45 46 47 47 48 49 49 48 48
41 41 42 42 41 41 41 41 42 41 41 41 42 42 43 45 46 47 47 47 48 47
39 39 39 38 37 37 37 39 39 39 39 39 39 41 40 40 41 41 42 43 43 44
36 35 35 35 35 35 36 36 36 36 36 36 39 40 40 40 38 38 37 38 39 38
33 32 33 33 32 33 34 34 33 34 34 34 35 38 39 39 37 36 37 37 36 36
31 31 30 30 31 31 32 31 31 32 32 32 33 37 38 38 36 36 36 36 35 34
30 28 29 27 28 29 29 29 28 30 29 29 30 35 37 38 34 34 34 34 34 33
29 26 27 28 27 28 25 27 28 28 28 26 26 32 36 37 34 32 33 32 32 32
26 25 25 25 25 25 24 24 24 26 27 26 27 28 34 37 33 32 31 30 30 31

GFSNIL_sfc_temp_078.txt.gz
Temp
59 60 60 60 60 61 63 64 64 63 64 64 64 62 61 59 58 57 55 55 55 55
61 61 60 60 61 62 61 59 59 61 61 62 62 62 62 61 58 58 57 56 56 55
58 59 59 59 58 58 59 58 58 58 59 59 59 59 59 58 59 58 57 56 55 54
55 56 56 56 56 55 56 55 55 55 55 55 56 56 56 56 56 56 56 57 55 53
54 54 54 53 53 52 52 52 52 51 51 52 53 53 52 52 53 53 52 52 51 51
51 51 50 50 50 50 49 50 50 50 49 49 49 49 49 50 50 50 50 50 48 49
47 47 48 47 47 47 47 48 48 48 47 47 47 47 47 47 47 48 48 48 48 47
46 46 45 44 43 43 43 44 44 44 44 45 45 46 44 43 43 42 42 43 43 44
42 40 40 39 39 40 40 41 40 40 40 40 43 41 40 40 41 40 38 38 40 41
38 37 38 37 38 38 38 38 37 38 38 38 40 39 39 38 39 39 39 39 38 37
37 35 36 36 36 36 37 36 36 36 36 37 37 38 38 38 39 39 40 39 39 37
35 33 33 31 34 35 34 34 33 34 33 33 34 36 37 37 36 36 36 38 38 37
34 31 31 33 32 33 32 32 33 32 33 32 32 34 35 36 35 33 35 36 35 34
32 30 31 31 32 31 30 31 31 31 33 33 32 33 35 36 34 34 33 33 33 35

GFSNIL_sfc_temp_084.txt.gz
Temp
60 59 58 58 55 53 52 52 53 53 54 55 55 55 54 52 53 54 52 54 53 56
53 53 52 51 51 51 51 52 51 51 51 51 52 52 52 50 50 50 49 50 50 51
50 51 50 49 48 48 48 49 48 48 48 48 49 49 48 47 48 48 47 49 48 48
48 48 48 46 46 46 46 46 46 46 46 46 46 46 45 45 46 45 45 45 45 46
47 46 45 44 44 44 44 45 45 45 44 44 45 44 44 43 43 43 43 44 43 44
44 43 42 42 42 42 42 42 42 43 42 42 43 42 42 43 42 42 42 42 42 42
40 41 40 40 40 40 40 40 40 40 40 40 40 41 41 41 39 38 40 40 40 40
39 39 38 37 36 36 36 38 37 37 36 37 38 41 39 37 35 35 35 36 37 38
35 34 34 34 34 34 34 34 34 33 33 33 38 41 41 39 35 34 33 33 35 36
33 33 33 33 33 33 33 33 32 32 32 32 32 38 39 39 34 33 33 33 33 34
32 31 31 31 31 31 31 31 31 31 30 30 32 38 38 38 34 32 32 32 33 34
30 27 27 25 28 29 28 28 26 29 26 25 30 36 37 36 33 32 33 34 35 35
28 24 24 27 26 26 24 29 29 29 28 26 27 34 36 36 32 33 33 34 35 35
25 22 23 24 23 22 23 26 26 27 28 25 26 29 37 38 35 32 31 32 33 34

GFSNIL_sfc_temp_087.txt.gz
Temp
59 58 56 56 54 53 49 49 49 49 50 50 50 50 49 48 48 48 47 48 48 51
54 53 48 47 48 47 47 49 47 46 46 47 47 47 47 46 45 45 45 45 45 46
47 47 46 46 44 44 44 45 45 44 44 44 44 44 44 43 44 43 42 44 43 43
44 44 44 43 42 43 43 43 43 43 43 42 42 42 41 41 42 41 40 41 41 42
44 42 42 41 41 41 41 41 41 41 41 41 41 40 40 40 40 39 39 40 40 40
40 40 40 39 40 39 39 39 39 39 39 39 39 39 39 40 38 37 37 38 38 38
38 38 38 38 37 37 37 37 37 37 37 37 37 37 38 38 36 36 37 36 36 36
36 36 36 35 35 34 34 36 36 35 34 35 36 39 37 35 34 33 33 33 33 34
34 33 33 33 33 33 33 33 32 32 31 31 36 39 39 37 33 32 31 31 32 32
33 33 32 32 33 32 32 31 31 30 30 30 30 37 38 38 33 32 31 31 31 32
32 31 31 31 30 30 30 29 29 29 29 28 30 36 37 37 32 30 30 32 33 34
30 27 26 24 25 28 26 25 24 27 24 22 26 34 36 36 30 31 31 32 34 34
28 23 22 25 23 25 23 26 26 27 24 23 23 31 35 36 30 27 31 31 34 35
24 22 23 22 21 20 17 21 16 22 23 20 23 24 35 37 32 29 30 33 33 34

GFSNIL_sfc_temp_093.txt.gz
Temp
61 59 57 56 54 52 51 50 49 47 45 45 45 44 43 42 42 41 39 40 39 40
56 55 52 51 51 49 48 47 43 43 42 42 42 42 42 40 39 39 38 37 37 37
52 51 50 49 47 46 44 42 41 40 40 40 40 40 39 38 38 37 36 37 36 35
47 46 47 46 43 41 40 40 40 39 39 39 38 38 37 37 36 35 35 34 34 34
45 43 42 40 39 39 39 38 38 38 37 37 36 36 36 35 34 33 33 33 32 32
41 41 39 38 38 38 37 37 37 36 35 35 35 35 35 34 33 33 32 32 31 31
38 39 38 37 37 36 36 35 34 34 34 34 34 33 33 33 32 32 32 32 31 30
36 36 35 35 34 34 34 33 33 32 32 32 33 35 32 32 31 30 30 31 30 31
35 34 33 32 32 32 32 31 31 31 31 30 33 37 38 35 31 30 30 29 29 30
33 33 33 32 32 31 31 31 30 30 30 29 29 37 37 37 31 30 29 29 30 30
33 32 31 30 30 30 30 29 29 28 27 27 29 35 36 36 31 30 30 29 29 29
32 29 28 27 27 28 26 24 24 26 22 20 23 33 35 34 28 29 29 30 29 28
29 27 25 26 25 24 23 25 25 24 21 20 17 30 34 33 26 20 26 26 29 31
26 25 25 23 22 21 20 21 18 20 21 21 20 22 32 33 27 25 21 22 25 27

GFSNIL_sfc_temp_096.txt.gz
Temp
62 62 61 59 57 55 52 51 50 49 48 45 44 43 42 40 39 38 37 37 37 37
60 57 55 53 53 51 49 48 47 46 42 41 41 41 40 38 37 36 36 35 35 35
55 53 52 51 48 48 46 45 44 40 39 39 39 39 38 36 36 35 34 34 34 33
50 50 49 48 46 46 44 43 40 39 38 37 37 37 36 35 35 34 33 33 32 32
48 47 46 45 44 43 42 38 38 37 37 36 36 35 35 35 33 32 32 32 31 30
44 45 44 43 41 39 38 36 36 36 35 35 34 34 34 33 33 32 32 31 30 29
42 43 42 40 38 36 36 35 34 34 33 34 33 33 33 33 32 31 31 32 31 30
39 40 38 36 35 33 34 34 33 32 32 32 33 34 32 32 31 31 30 30 30 30
37 35 34 33 33 33 32 32 32 32 31 31 33 38 38 33 30 30 30 29 29 30
34 34 33 32 32 32 31 31 30 30 30 29 30 37 37 36 31 30 30 30 30 30
33 32 31 31 31 30 30 30 29 28 28 28 30 36 37 35 31 30 30 29 29 28
33 31 30 29 29 29 28 25 24 26 23 24 25 35 36 33 29 30 29 30 29 28
32 31 30 29 28 26 26 26 25 25 22 22 22 33 34 32 29 24 26 27 28 30
29 29 29 27 25 24 23 22 20 21 21 22 23 25 32 33 29 26 23 23 24 27

GFSNIL_sfc_temp_102.txt.gz
Temp
72 72 72 71 71 68 66 61 58 57 55 54 52 52 54 55 53 53 52 52 52 51
70 71 71 71 71 68 64 55 54 54 52 51 50 51 55 52 49 50 49 49 49 49
68 67 68 69 66 63 58 54 51 50 49 48 49 50 52 49 49 48 47 47 47 47
64 63 64 62 62 61 53 52 49 48 47 47 48 50 50 48 47 47 45 46 46 44
60 58 56 56 55 53 51 50 48 47 46 46 48 49 49 46 47 46 44 44 43 43
54 54 54 52 51 50 48 49 46 45 44 46 48 47 47 46 45 45 44 43 43 42
54 54 51 51 49 46 46 46 43 46 44 45 47 45 45 44 43 43 43 41 42 41
50 49 49 46 46 43 43 44 43 43 42 46 45 44 43 42 42 41 40 39 39 40
45 42 41 40 39 38 39 39 40 40 40 42 42 40 40 40 39 39 38 37 37 37
40 39 39 37 37 38 38 39 39 39 40 39 39 39 39 38 38 38 38 37 35 34
38 37 36 36 37 35 36 37 36 38 38 37 37 39 38 36 37 37 36 36 35 35
38 35 34 34 34 34 35 34 35 35 34 34 35 38 37 36 34 33 33 34 34 34
37 35 35 35 34 34 34 33 33 32 33 33 33 38 37 35 34 31 31 31 31 30
36 35 36 34 33 33 31 31 31 30 30 31 33 35 37 35 32 32 31 31 29 30

GFSNIL_sfc_temp_105.txt.gz
Temp
74 74 74 74 72 69 68 67 66 62 61 59 57 54 54 53 53 56 53 53 53 51
72 72 73 73 73 70 70 68 63 60 57 55 53 53 53 50 50 51 50 49 48 48
71 71 72 73 71 69 68 62 59 57 55 51 50 51 52 49 50 49 47 47 47 47
70 70 70 70 69 68 65 60 57 55 53 51 49 50 51 49 48 47 46 46 46 44
70 68 67 66 65 63 60 58 57 53 50 48 48 48 49 48 48 46 44 44 43 42
65 64 63 62 59 55 54 53 51 49 48 47 47 47 48 48 46 46 44 43 42 42
59 58 58 56 53 51 50 49 47 48 47 46 48 47 47 46 44 43 43 42 42 41
57 54 51 48 47 45 45 47 46 46 44 44 47 45 45 43 42 41 40 39 39 40
51 47 45 43 41 40 40 40 42 40 40 40 44 43 43 42 40 39 37 36 36 37
42 40 40 39 39 37 38 39 37 40 39 38 38 42 41 40 38 37 37 36 35 34
40 38 36 36 36 37 36 37 37 36 37 37 36 40 40 38 37 37 36 36 35 34
38 36 35 35 34 35 34 34 35 35 35 35 35 39 38 37 35 34 33 34 34 34
38 35 35 35 34 34 35 34 33 33 34 34 34 38 38 36 34 32 31 31 31 32
36 35 36 34 33 33 33 32 33 32 33 33 34 35 38 37 34 33 30 30 29 30

GFSNIL_sfc_temp_111.txt.gz
Temp
66 66 66 66 66 65 64 64 64 63 63 62 61 60 60 60 59 56 54 53 51 49
66 66 66 67 66 66 66 65 64 62 62 62 60 59 58 58 56 55 52 51 48 46
66 66 67 67 65 66 65 64 62 61 61 61 58 55 54 52 50 50 47 47 46 44
65 65 65 66 64 64 62 62 60 60 59 57 55 53 53 52 50 49 45 44 45 42
63 63 63 63 65 63 61 62 62 60 58 56 54 52 52 49 49 48 44 43 41 42
58 60 62 63 64 62 62 62 60 57 56 53 51 50 51 50 47 47 45 43 42 41
52 55 57 58 56 55 55 54 54 55 54 52 51 50 50 49 46 45 44 43 41 40
49 51 52 52 52 51 50 51 51 49 48 48 48 48 47 46 45 43 41 39 40 39
46 45 45 45 44 44 44 44 44 44 43 44 46 45 44 44 42 40 38 37 36 36
40 41 40 40 40 40 40 39 39 39 39 39 40 42 42 41 40 39 39 37 35 34
38 37 36 38 38 37 37 37 37 37 37 37 36 41 41 38 36 36 36 36 36 35
36 31 35 34 36 36 36 34 34 33 34 34 34 40 40 38 35 34 34 34 35 34
34 31 35 35 33 32 32 32 32 32 33 33 33 39 39 37 34 33 32 32 32 32
29 33 34 33 31 32 32 31 32 32 32 33 34 35 39 38 34 33 32 31 31 32

GFSNIL_sfc_temp_114.txt.gz
Temp
64 64 64 63 64 63 63 64 64 62 63 62 61 60 59 59 59 59 58 58 55 54
64 64 64 64 64 64 64 64 63 62 61 62 60 60 59 59 58 58 57 57 55 53
65 65 66 66 64 64 65 63 61 61 61 61 60 60 59 59 59 57 56 55 51 49
64 65 65 64 64 64 63 63 62 61 61 60 60 60 59 59 58 54 54 48 49 49
63 62 62 62 64 64 62 63 62 61 60 60 60 59 57 56 54 52 51 49 45 45
56 59 61 62 62 62 62 62 60 60 59 59 59 57 55 56 54 52 52 50 46 44
50 53 54 56 57 58 60 60 60 60 60 58 56 54 54 53 51 50 49 48 47 46
47 48 49 50 51 52 52 53 53 53 52 52 51 51 50 51 50 48 46 44 43 43
45 44 45 45 43 43 43 44 44 42 43 44 46 44 44 45 45 42 41 38 38 36
39 40 40 39 40 40 40 40 39 40 40 40 40 42 42 41 40 38 38 37 35 34
38 37 37 39 38 37 37 37 37 38 38 38 37 41 42 39 37 36 36 35 35 35
36 31 35 35 36 38 35 34 35 33 34 34 34 40 41 38 34 34 33 34 34 35
33 31 35 35 33 32 33 32 32 33 33 33 33 38 40 37 33 33 32 32 32 33
30 33 34 33 32 32 32 32 33 32 32 33 33 34 39 38 33 33 31 31 30 32

GFSNIL_sfc_temp_117.txt.gz
Temp
64 64 64 64 63 62 62 62 63 61 62 61 61 60 59 59 58 58 57 57 57 57
64 64 64 64 64 64 63 63 61 61 60 61 60 60 59 59 58 58 57 58 58 57
63 64 64 64 62 62 64 63 60 60 60 60 60 60 59 59 59 58 58 58 58 57
62 63 63 63 63 63 62 62 60 60 60 60 59 60 59 59 60 58 58 58 56 55
61 60 60 61 62 61 60 61 61 60 59 60 60 61 60 59 58 57 56 56 52 52
57 58 59 60 59 59 59 61 60 60 59 59 60 59 60 59 58 56 56 56 52 52
51 53 54 55 57 58 60 60 59 59 60 60 60 59 59 57 56 55 54 53 53 51
46 47 47 47 47 48 50 53 54 54 53 52 52 52 52 51 50 49 48 45 44 44
44 41 44 44 43 43 43 44 44 43 43 45 46 44 44 45 45 43 42 41 39 38
38 40 40 40 40 39 39 40 39 40 40 40 40 41 43 41 41 40 39 37 36 34
37 36 37 38 38 38 38 37 37 37 37 38 37 41 41 39 38 37 37 36 36 34
35 33 35 36 37 36 35 34 34 33 33 34 34 39 40 39 34 35 34 34 34 34
33 34 34 34 34 32 33 32 32 33 33 33 33 37 39 36 33 33 32 32 32 33
32 34 34 33 32 33 33 33 33 33 33 33 33 34 39 37 33 32 32 31 31 32

GFSNIL_sfc_temp_123.txt.gz
Temp
66 66 66 66 64 63 63 63 64 61 62 62 62 62 61 61 60 61 59 60 60 61
65 66 65 66 66 64 64 64 62 61 61 61 61 61 61 60 60 59 59 59 59 59
64 65 66 66 64 64 65 63 60 60 60 60 60 60 60 60 60 59 58 59 58 57
62 63 64 64 64 64 63 61 60 60 60 60 59 60 59 60 60 58 58 59 57 57
60 61 61 61 62 61 61 60 60 60 59 59 59 60 59 58 58 58 57 57 57 56
56 57 58 59 60 59 60 59 59 59 59 59 59 58 58 59 59 58 58 58 57 57
53 54 55 56 56 56 57 58 57 58 58 58 58 58 58 58 58 58 56 54 52 50
46 47 48 47 48 48 48 50 51 53 53 50 49 47 49 51 50 49 48 45 45 44
42 44 45 44 44 43 44 44 43 42 43 44 44 42 42 45 45 44 43 41 40 39
39 39 39 40 39 39 40 40 39 40 40 39 40 42 41 40 43 41 41 39 38 37
38 37 38 38 38 37 38 38 37 37 38 38 37 41 41 39 40 39 39 38 38 37
36 35 37 36 37 37 36 35 35 35 33 34 34 40 40 37 36 35 34 35 36 36
36 35 36 36 34 33 34 33 33 33 33 33 33 39 39 36 34 33 33 33 33 35
33 34 35 34 33 33 33 33 33 33 33 33 33 36 39 38 33 33 32 32 32 33